Regional Weather Roundup
Issued by NWS

Home | Current Version | Previous Version | Text Only | Print | Product List | Glossary Off
Versions: 1 2 3 4 5 6 7 8 9 10 11 12 13 14 15 16 17 18 19 20 21 22 23 24 25 26 27 28 29 30 31 32 33 34 35 36 37 38 39 40 41 42 43 44 45 46 47 48 49 50

000
ASUS43 KLOT 190003
RWRIL

ILLINOIS REGIONAL WEATHER ROUNDUP
NATIONAL WEATHER SERVICE CHICAGO/ROMEOVILLE IL
600 PM CST THU JAN 18 2018

NOTE: "FAIR" INDICATES FEW OR NO CLOUDS BELOW 12,000 FEET WITH NO
SIGNIFICANT WEATHER AND/OR OBSTRUCTIONS TO VISIBILITY.

* THESE STATIONS ARE NOT UNDER NWS QUALITY CONTROL. THEY ALSO MAY NOT
  REPORT WEATHER SUCH AS PRECIPITATION OR FOG.

ILZ001-002-007-009-015-016-024-190100-
NORTHWEST ILLINOIS

CITY           SKY/WX    TMP DP  RH WIND       PRES   REMARKS
MOLINE         FAIR      32  21  64 SW8       30.01S WCI  25
6HR MIN TEMP:  29; 6HR MAX TEMP:  35;

STERLING*      FAIR      29  23  78 SW5       30.02R WCI  24
SAVANNA*       FAIR      30  20  67 SW8       30.01R WCI  22
$$

ILZ003-004-008-010-011-017-018-190100-
NORTH CENTRAL ILLINOIS

CITY           SKY/WX    TMP DP  RH WIND       PRES   REMARKS
ROCKFORD       FAIR      24  18  77 S8        30.01R WCI  15
6HR MIN TEMP:  24; 6HR MAX TEMP:  31;

FREEPORT*      FAIR      25  18  76 SW10      30.00R WCI  15
ROCHELLE*      FAIR      22  19  85 S7        30.01R WCI  14
DE KALB*       FAIR      28  21  75 SW12      30.01R WCI  18
PERU*          FAIR      29  19  64 SW9       30.05R WCI  21
$$

ILZ005-006-012>014-019>023-190100-
NORTHEAST ILLINOIS

CITY           SKY/WX    TMP DP  RH WIND       PRES   REMARKS
CHICAGO-OHARE  FAIR      31  20  63 SW16      30.00R WCI  20
6HR MIN TEMP:  26; 6HR MAX TEMP:  32;

CHICAGO-MIDWAY FAIR      32  21  64 SW16      30.02R WCI  21
6HR MIN TEMP:  28; 6HR MAX TEMP:  33;

AURORA         FAIR      29  20  69 S9        30.02R WCI  20
6HR MIN TEMP:  25; 6HR MAX TEMP:  32;

LANSING*       FAIR      28  22  79 S13       30.04R WCI  18
JOLIET*        FAIR      32  23  68 SW7       30.05R WCI  26
WAUKEGAN       FAIR      30  18  60 SW9       29.96R WCI  22
6HR MIN TEMP:  27; 6HR MAX TEMP:  33;

DUPAGE AIRPORT FAIR      29  21  72 SW13      30.01R WCI  19
6HR MIN TEMP:  24; 6HR MAX TEMP:  31;

KANKAKEE*      FAIR     N/A N/A N/A SW10      30.08S
WHEELING       FAIR      31  20  63 SW12      30.01R WCI  22
6HR MIN TEMP:  27; 6HR MAX TEMP:  34;

MORRIS*        FAIR      29  22  74 S10       30.04R WCI  20
ROMEOVILLE*    FAIR      29  22  74 SW13      30.03R WCI  19
NORTHERLY ISL    N/A     32  19  59 S7          N/A  WCI  26
$$

LMZ740>746-190100-
SOUTHERN LAKE MICHIGAN

STATION/POSITION SKY/WX   TEMP    WIND        PRES    VSBY  WAVE
                          AIR SEA DIR/SP/G                  HT/PER
                          (F)     (DEG/KT/KT) (MB)    (MI)  (FT/S)
HARRISON CRIB              33     220/ 23/ 26   N/A
BURNHAM HARBOR             32     250/  9/ 14   N/A
CALUMET HARBOR             30     200/ 14/ 19 1015.7R
BURNS HARBOR               29     210/ 16/ 25 1016.9S
MICHIGAN CITY              30     190/ 18/ 23   N/A
$$

ILZ025>027-034>036-040-047-049-050-058-095>099-190100-
WEST-CENTRAL ILLINOIS

CITY           SKY/WX    TMP DP  RH WIND       PRES   REMARKS
QUINCY         CLEAR     35  20  54 S15       30.07F WCI  25
GALESBURG*     FAIR      30  23  75 S10       30.05S WCI  21
MACOMB*        CLEAR     34  22  61 SW13      30.08R WCI  25
JACKSONVILLE*  CLEAR     36  18  48 S13       30.10F WCI  27
PITTSFIELD*    CLEAR     39  19  44 SW10G16   30.11S WCI  32
$$

ILZ028>032-037-038-041>044-048-051>054-059>061-190100-
CENTRAL ILLINOIS

CITY           SKY/WX    TMP DP  RH WIND       PRES   REMARKS
PONTIAC        FAIR      32  24  73 SW10      30.07R WCI  23
DECATUR        FAIR      32  23  69 S18       30.12F WCI  20
PEORIA         FAIR      34  21  59 SW14      30.06S WCI  25
6HR MIN TEMP:  29; 6HR MAX TEMP:  37; 6HR PCP:  0.02;

LACON*         FAIR      33  20  59 SW9       30.05R WCI  25
LINCOLN*       FAIR      36  22  56 S7        30.10S WCI  30
SPRINGFIELD    FAIR      38  20  48 S14       30.11F WCI  30
6HR MIN TEMP:  33; 6HR MAX TEMP:  41;

TAYLORVILLE    FAIR      33  23  65 S17G23    30.13F WCI  22
6HR MIN TEMP:  31; 6HR MAX TEMP:  38;

$$

ILZ033-039-045-046-055>057-062-063-190100-
EAST-CENTRAL ILLINOIS

CITY           SKY/WX    TMP DP  RH WIND       PRES   REMARKS
CHAMPAIGN      FAIR      27  20  75 S17       30.12S WCI  14
DANVILLE*      FAIR      25  16  68 S23       30.10S WCI  10
RANTOUL*       FAIR      29  22  75 S9        30.11S WCI  21
MATTOON        FAIR      27  18  69 S13       30.15S WCI  16
PARIS*         FAIR      26  17  70 S16       30.18S WCI  13
$$

ILZ079-100>102-190100-
SOUTHWEST ILLINOIS

CITY           SKY/WX    TMP DP  RH WIND       PRES   REMARKS
ALTON          PTCLDY    36  21  55 SW9       30.17S WCI  29
BELLEVILLE     CLEAR     32  19  59 SW8       30.19R WCI  24
CAHOKIA*       CLEAR     41  15  35 S5        30.18R
SPARTA*        CLEAR     31  21  67 S14       30.24R WCI  20
$$

ILZ064>066-069>071-074>076-080>082-084>086-088>090-092>094-190100-
SOUTH-CENTRAL ILLINOIS

CITY           SKY/WX    TMP DP  RH WIND       PRES   REMARKS
CARBONDALE     FAIR      27  16  63 S14       30.28S WCI  16
6HR MIN TEMP:  27; 6HR MAX TEMP:  33;

CAIRO*         FAIR      25  14  63 S8        30.33F WCI  16
EFFINGHAM*     FAIR      31  19  60 S8        30.21S WCI  23
MARION         CLEAR     27  14  59 S12       30.29S WCI  16
MT. VERNON     FAIR      30  18  60 SW18      30.24S WCI  18
CENTRALIA*     CLEAR     30  19  63 S14       30.22R WCI  20
SALEM*         FAIR      32  18  56 S9        30.21S WCI  24
METROPOLIS*    FAIR      26  15  60 S8        30.34S WCI  18
$$

ILZ067-068-072-073-078-083-087-091-190100-
SOUTHEAST ILLINOIS

CITY           SKY/WX    TMP DP  RH WIND       PRES   REMARKS
LAWRENCEVILLE  FAIR      21  13  71 S10       30.26R WCI  10
FLORA*         FAIR      29  17  59 S10       30.24R WCI  20
FAIRFIELD*     FAIR      28  14  56 S6        30.25R WCI  21
HARRISBURG*    FAIR      28  14  55 SW13      30.29S WCI  18
ROBINSON*      FAIR      24  15  68 S8        30.24S WCI  15
CARMI*         FAIR      23  13  67 S13       30.27S WCI  11
$$

ABBREVIATIONS USED IN REMARKS
   TC - TEMPERATURE IN CELSIUS
  WCI - WIND CHILL INDEX
   HX - HEAT INDEX
  VSB - VISIBILITY
$$





USA.gov is the U.S. government's official web portal to all federal, state and local government web resources and services.